This is the latest recevied weather packets stored in our database for station/object N1YZ. If no packets are shown the sender has not sent any weather packets the latest 1 day(s).
| Time | Temp. | Humidity | Pressure | Rain* | Wind** | Luminosity | Snow |
|---|---|---|---|---|---|---|---|
| 1778090399 | 24.44° C | 85% | 1033.3 hPa | 0 mm | - | 107 W/m² | - |
| 1778087666 | 24.44° C | 83% | 1033.5 hPa | 0 mm | - | 148 W/m² | - |
| 1778087054 | 24.44° C | 81% | 1033.6 hPa | 0 mm | - | 165 W/m² | - |
| 1778086753 | 24.44° C | 80% | 1033.3 hPa | 0 mm | - | 263 W/m² | - |
| 1778086147 | 24.44° C | 81% | 1033.5 hPa | 0 mm | - | 140 W/m² | - |
| 1778084321 | 25.56° C | 81% | 1033.4 hPa | 0 mm | - | 230 W/m² | - |
| 1778083715 | 25° C | 80% | 1033.4 hPa | 0 mm | - | 270 W/m² | - |
| 1778081377 | 23.33° C | 83% | 1033.4 hPa | 0 mm | - | 219 W/m² | - |
| 1778080469 | 23.33° C | 83% | 1033.7 hPa | 0 mm | - | 176 W/m² | - |
| 1778080167 | 23.33° C | 84% | 1033.9 hPa | 0 mm | - | 169 W/m² | - |
| 1778079560 | 22.78° C | 84% | 1033.6 hPa | 0 mm | - | 127 W/m² | - |
| 1778079256 | 22.78° C | 85% | 1033.7 hPa | 0 mm | - | 161 W/m² | - |
| 1778078045 | 22.22° C | 87% | 1033.9 hPa | 0 mm | - | 118 W/m² | - |
| 1778077139 | 21.67° C | 88% | 1033.5 hPa | 0 mm | - | 127 W/m² | - |
| 1778076231 | 21.11° C | 89% | 1033.5 hPa | 0 mm | - | 97 W/m² | - |
| 1778075625 | 21.11° C | 91% | 1033.6 hPa | 0 mm | - | 106 W/m² | - |
| 1778074715 | 20.56° C | 91% | 1034.2 hPa | 0 mm | - | 45 W/m² | - |
| 1778074412 | 20.56° C | 92% | 1033.9 hPa | 0 mm | - | 84 W/m² | - |
| 1778074108 | 20.56° C | 92% | 1034.2 hPa | 0 mm | - | 82 W/m² | - |
| 1778072897 | 20° C | 93% | 1034.3 hPa | 0 mm | - | 63 W/m² | - |
| 1778072593 | 20° C | 93% | 1034.4 hPa | 0 mm | - | 53 W/m² | - |
| 1778072291 | 20° C | 93% | 1034.2 hPa | 0 mm | - | 37 W/m² | - |
| 1778071384 | 20° C | 93% | 1034.1 hPa | 0 mm | - | 27 W/m² | - |
| 1778068359 | 19.44° C | 92% | 1032.9 hPa | 0 mm | - | 14 W/m² | - |
| 1778067754 | 18.89° C | 92% | 1033 hPa | 0 mm | - | 7 W/m² | - |
* Rain latest hour (hover to see other rain measurements)
** Current wind speed in m/s (hover to see current wind gust speed)